Погода в Сибае

Россия / Республика Башкортостан     52°43′13″N   58°39′59″E
темп.,
°C
ветер,
м/с
пор.,
м/с
влажн.,
%
обл.,
%
осадки,
мм/ч
давл.,
гПа
погр.,
м
6 мая, чт
чт623:00+9зсз712500 0.0 1009951
02:00+6зсз612635 0.0 1011887
05:00+5сз511703 0.0 1014661
08:00+7сз69615 0.0 1015859
11:00+11сз68435 0.0 10161402
14:00+15сз68320 0.0 10161810
17:00+16сз783612 0.0 10161993
20:00+12ссз59535 0.0 1018451
7 мая, пт
пт723:00+9сз22655 0.0 102019
02:00+7сз11715 0.0 102110
05:00+6ссз117728 0.0 102210
08:00+9всв116613 0.0 1023282
11:00+13юв22515 0.0 10221265
14:00+16ююв2238100 0.0 10211848
17:00+17ююв2233100 0.0 10202054
20:00+15св0041100 0.0 102011
8 мая, сб
сб823:00+12ссв1145100 0.0 102010
02:00+12с114899 0.0 102010
05:00+10с125587 0.0 102010
08:00+13ссз214897 0.0 1019170
11:00+17ссв123698 0.0 10181314
14:00+19ссз222993 0.0 10172745
17:00+19ссв2328100 0.0 10162514
20:00+17св3542100 0.0 1016205
9 мая, вс
вс923:00+12вюв3549100 0.0 1017101
02:00+11ссз225593 0.0 101814
05:00+10ссз225983 0.0 101819
08:00+13с34495 0.0 1018305
11:00+17ссв47375 0.0 10171742
14:00+18св4535100 0.0 10172138
17:00+19с46335 0.0 10172029
20:00+16ссз22438 0.0 101724
10 мая, пн
пн1023:00+13ссз33532 0.0 101932
02:00+11сз34633 0.0 101951
05:00+9ссз34710 0.0 102151
08:00+13ссз46614 0.0 1022328
11:00+19ссв56434 0.0 10211251
14:00+21ссв453361 0.0 10212585
17:00+20ссв463997 0.0 1022878
20:00+17вюв235072 0.0 102237